| time (UTC) | temp F | wind direction | speed knots | gust knots | rain 1hr in | rain 24hr in | rain mn in | humidity % | barometer mb |
| 20260504001547 | 55 | 163 | 0.9 | 10.4 | 0.00 | 0.00 | 0.00 | 44 | 1012.5 |
| 20260504000037 | 56 | 187 | 0.9 | 3.5 | 0.00 | 0.00 | 0.00 | 43 | 1012.5 |
| 20260503234535 | 57 | 0 | 3.5 | 10.4 | 0.00 | 0.00 | 0.00 | 42 | 1012.5 |
| 20260503233038 | 57 | 0 | 2.6 | 7.0 | 0.00 | 0.00 | 0.00 | 42 | 1012.7 |
| 20260503231546 | 57 | 160 | 0.9 | 12.2 | 0.00 | 0.00 | 0.00 | 41 | 1012.7 |
| 20260503230038 | 57 | 191 | 0.9 | 12.2 | 0.00 | 0.00 | 0.00 | 41 | 1012.9 |
| 20260503224537 | 58 | 232 | 3.5 | 14.8 | 0.00 | 0.00 | 0.00 | 40 | 1012.8 |
| 20260503223039 | 58 | 248 | 4.3 | 11.3 | 0.00 | 0.00 | 0.00 | 40 | 1012.9 |
| 20260503221535 | 58 | 161 | 2.6 | 13.0 | 0.00 | 0.00 | 0.00 | 43 | 1013.0 |
| 20260503220040 | 58 | 163 | 1.7 | 10.4 | 0.00 | 0.00 | 0.00 | 42 | 1013.0 |
| 20260503214544 | 59 | 163 | 3.5 | 10.4 | 0.00 | 0.00 | 0.00 | 40 | 1013.1 |
| 20260503213052 | 59 | 198 | 4.3 | 13.9 | 0.00 | 0.00 | 0.00 | 40 | 1013.1 |
| 20260503211556 | 59 | 242 | 5.2 | 17.4 | 0.00 | 0.00 | 0.00 | 38 | 1013.1 |
| 20260503210036 | 60 | 190 | 3.5 | 10.4 | 0.00 | 0.00 | 0.00 | 38 | 1013.2 |
| 20260503204550 | 59 | 258 | 3.5 | 13.9 | 0.00 | 0.00 | 0.00 | 40 | 1013.2 |
| 20260503203040 | 60 | 132 | 2.6 | 13.9 | 0.00 | 0.00 | 0.00 | 40 | 1013.0 |
| 20260503201539 | 61 | 142 | 3.5 | 13.0 | 0.00 | 0.00 | 0.00 | 39 | 1013.3 |
| 20260503200037 | 59 | 200 | 2.6 | 13.0 | 0.00 | 0.00 | 0.00 | 42 | 1013.6 |
| 20260503194539 | 59 | 174 | 0.9 | 8.7 | 0.00 | 0.00 | 0.00 | 42 | 1014.0 |
| 20260503193036 | 59 | 234 | 1.7 | 12.2 | 0.00 | 0.00 | 0.00 | 40 | 1014.2 |
| 20260503191550 | 59 | 0 | 2.6 | 8.7 | 0.00 | 0.00 | 0.00 | 40 | 1014.4 |
| 20260503190039 | 59 | 219 | 4.3 | 12.2 | 0.00 | 0.00 | 0.00 | 37 | 1014.6 |
| 20260503184544 | 60 | 197 | 3.5 | 12.2 | 0.00 | 0.00 | 0.00 | 36 | 1014.9 |
| 20260503183104 | 60 | 265 | 4.3 | 12.2 | 0.00 | 0.00 | 0.00 | 38 | 1015.0 |
| 20260503181537 | 57 | 213 | 2.6 | 17.4 | 0.00 | 0.00 | 0.00 | 42 | 1015.1 |
| 20260503180037 | 58 | 281 | 3.5 | 8.7 | 0.00 | 0.00 | 0.00 | 42 | 1015.1 |
| 20260503174544 | 60 | 196 | 1.7 | 12.2 | 0.00 | 0.00 | 0.00 | 41 | 1015.4 |
| 20260503173039 | 59 | 0 | 1.7 | 11.3 | 0.00 | 0.00 | 0.00 | 46 | 1015.4 |
| 20260503171538 | 59 | 210 | 1.7 | 7.8 | 0.00 | 0.00 | 0.00 | 46 | 1015.8 |
| 20260503081553 | 35 | 0 | 0.0 | 3.5 | 0.00 | 0.02 | 0.00 | 82 | 1016.5 |
| 20260503071558 | 36 | 0 | 0.0 | 0.9 | 0.00 | 0.05 | 0.00 | 83 | 1016.5 |
| 20260503054551 | 37 | 0 | 0.0 | 2.6 | 0.00 | 0.09 | 0.00 | 81 | 1016.9 |
| 20260503053040 | 37 | 0 | 0.0 | 0.9 | 0.00 | 0.09 | 0.00 | 79 | 1016.9 |
| 20260503051547 | 37 | 0 | 0.0 | 1.7 | 0.00 | 0.09 | 0.00 | 78 | 1017.0 |
| 20260503050038 | 38 | 0 | 0.0 | 2.6 | 0.00 | 0.09 | 0.00 | 77 | 1016.9 |
| 20260503044538 | 39 | 0 | 0.0 | 1.7 | 0.00 | 0.23 | 0.00 | 76 | 1017.0 |
| 20260503043037 | 39 | 0 | 0.0 | 2.6 | 0.00 | 0.23 | 0.00 | 76 | 1016.9 |
| 20260503041537 | 39 | 0 | 0.0 | 0.9 | 0.00 | 0.23 | 0.00 | 76 | 1017.1 |
| 20260503040038 | 39 | 0 | 0.0 | 2.6 | 0.00 | 0.23 | 0.00 | 76 | 1017.2 |
| 20260503034543 | 39 | 0 | 0.0 | 2.6 | 0.00 | 0.23 | 0.23 | 76 | 1017.2 |
| 20260503033050 | 39 | 203 | 0.0 | 3.5 | 0.00 | 0.23 | 0.23 | 76 | 1017.3 |
| 20260503031539 | 40 | 0 | 0.0 | 2.6 | 0.00 | 0.23 | 0.23 | 75 | 1017.3 |
| 20260503030038 | 40 | 201 | 0.0 | 2.6 | 0.00 | 0.23 | 0.23 | 75 | 1017.4 |
| 20260503024544 | 40 | 0 | 0.0 | 1.7 | 0.00 | 0.23 | 0.23 | 75 | 1017.5 |
| 20260503023044 | 40 | 0 | 0.0 | 1.7 | 0.00 | 0.23 | 0.23 | 74 | 1017.7 |
| 20260503021537 | 40 | 0 | 0.0 | 2.6 | 0.00 | 0.23 | 0.23 | 73 | 1017.5 |
| 20260503020041 | 40 | 0 | 0.0 | 0.9 | 0.00 | 0.23 | 0.23 | 72 | 1017.6 |
| 20260503014537 | 40 | 0 | 0.0 | 0.0 | 0.00 | 0.23 | 0.23 | 72 | 1017.6 |
| 20260503013037 | 40 | 0 | 0.0 | 0.0 | 0.00 | 0.23 | 0.23 | 71 | 1017.6 |
| 20260503011534 | 40 | 0 | 0.0 | 0.0 | 0.00 | 0.23 | 0.23 | 68 | 1017.5 |
| 20260503010039 | 41 | 0 | 0.0 | 0.0 | 0.00 | 0.23 | 0.23 | 68 | 1017.5 |
| 20260503004539 | 41 | 0 | 0.0 | 0.9 | 0.00 | 0.23 | 0.23 | 66 | 1017.4 |
| 20260503003039 | 41 | 0 | 0.0 | 3.5 | 0.00 | 0.23 | 0.23 | 64 | 1017.2 |